Погода в Новониколаевке

Россия / Республика Крым     45°18′33″N   36°03′32″E
темп.,
°C
ветер,
м/с
пор.,
м/с
влажн.,
%
обл.,
%
осадки,
мм/ч
давл.,
гПа
погр.,
м
21 июня, пн
пн2100:00+20ю22940 0.0 101020
03:00+20с11920 0.0 101011
06:00+21ссв239512 0.0 101090
09:00+26ссв33680 0.0 1010612
12:00+29ссв44510 0.0 10101102
15:00+29ссв55520 0.0 1010845
18:00+28св44600 0.0 1009610
21:00+22ссв33770 0.0 100955
22 июня, вт
вт2200:00+22ссв12780 0.0 100813
03:00+22в12875 0.0 100819
06:00+22ююв258976 0.0 1009173
09:00+25ююв4567100 0.0 1010523
12:00+28юв55562 0.0 1010936
15:00+28юв55555 0.0 1010869
18:00+26вюв45647 0.0 1011640
21:00+22ююв33795 0.0 101148
23 июня, ср
ср2300:00+20ююв359034 0.0 1011109
03:00+20ююв22951 0.0 101121
06:00+20юв259547 0.0 1012185
09:00+24ююв457656 0.0 1013754
12:00+27ююв4360100 0.0 1013837
15:00+28ю43565 0.0 1013929
18:00+27ю2158100 0.0 1013667
21:00+22зюз228185 0.0 101330
24 июня, чт
чт2400:00+21з3487100 0.0 101363
03:00+21зсз348695 0.0 101386
06:00+21ююз2388100 0.0 1014107
09:00+24ююз337491 0.0 1014390
12:00+26ююз4461100 0.0 1014647
15:00+27ююв435918 0.0 1014975
18:00+27юв34605 0.0 1014748
21:00+21ююз348699 0.4 101491
25 июня, пт
пт2500:00+20юз11875 0.0 101411
03:00+20з22891 0.0 101329
06:00+21зсз12865 0.0 101383
09:00+26зюз11643 0.1 1013708
12:00+28ююз425546 0.0 10131293
15:00+28юз435938 0.0 10121032
18:00+25ю43706 0.5 1013532
21:00+21ю35875 0.6 1013148